• In Moldova, Republic
  • List of Countries
  • For 7 days
  • Water Temperature
  • Satellite Maps
  • Weather Map
  • Weather Widgets
  • user-avatar
    Login

    Hourly Weather Eisenstadt

    Today, 21 July, Friday

    Time Temperature Precipitation Wind Pressure Humidity
    00:00 +21°C° 0.7 mm 4 mps 720 mmHg 78%
    01:00 +20°C° 0 mm 4 mps 721 mmHg 85%
    02:00 +19°C° 0.9 mm 4 mps 721 mmHg 86%
    03:00 +19°C° 0.9 mm 3 mps 721 mmHg 88%
    04:00 +18°C° 0.9 mm 3 mps 721 mmHg 89%
    05:00 +19°C° 0.2 mm 3 mps 722 mmHg 86%
    06:00 +20°C° 0.2 mm 3 mps 722 mmHg 82%
    07:00 +21°C° 0.2 mm 2 mps 722 mmHg 79%
    08:00 +24°C° 0 mm 2 mps 722 mmHg 68%
    09:00 +26°C° 0 mm 2 mps 723 mmHg 58%
    10:00 +28°C° 0 mm 2 mps 723 mmHg 47%
    11:00 +29°C° 0 mm 2 mps 723 mmHg 43%
    12:00 +30°C° 0 mm 2 mps 722 mmHg 40%
    13:00 +31°C° 0 mm 2 mps 722 mmHg 36%
    14:00 +31°C° 0.1 mm 2 mps 722 mmHg 38%
    15:00 +31°C° 0.1 mm 2 mps 722 mmHg 39%
    16:00 +31°C° 0.1 mm 2 mps 721 mmHg 41%
    17:00 +29°C° 0.3 mm 1 mps 721 mmHg 46%
    18:00 +28°C° 0.3 mm 1 mps 721 mmHg 51%
    19:00 +27°C° 0.3 mm 1 mps 721 mmHg 57%
    20:00 +25°C° 0.9 mm 1 mps 721 mmHg 62%
    21:00 +24°C° 0.9 mm 1 mps 721 mmHg 68%
    22:00 +22°C° 0.9 mm 1 mps 721 mmHg 73%
    23:00 +22°C° 0.2 mm 1 mps 721 mmHg 75%

    Tomorrow, 22 July, Saturday

    Time Temperature Precipitation Wind Pressure Humidity
    00:00 +22°C° 0.2 mm 1 mps 721 mmHg 76%
    01:00 +21°C° 0.2 mm 1 mps 721 mmHg 77%
    02:00 +21°C° 0.1 mm 1 mps 721 mmHg 79%
    03:00 +20°C° 0.1 mm 1 mps 720 mmHg 81%
    04:00 +20°C° 0.1 mm 1 mps 720 mmHg 82%
    05:00 +21°C° 0 mm 1 mps 721 mmHg 79%
    06:00 +22°C° 0 mm 1 mps 721 mmHg 76%
    07:00 +24°C° 0 mm 1 mps 721 mmHg 73%
    08:00 +26°C° 0 mm 2 mps 721 mmHg 64%
    09:00 +28°C° 0 mm 2 mps 721 mmHg 54%
    10:00 +31°C° 0 mm 2 mps 722 mmHg 45%
    11:00 +32°C° 0.2 mm 2 mps 722 mmHg 42%
    12:00 +34°C° 0.2 mm 2 mps 721 mmHg 39%
    13:00 +35°C° 0.2 mm 2 mps 721 mmHg 35%
    14:00 +35°C° 0.1 mm 2 mps 721 mmHg 35%
    15:00 +34°C° 0.1 mm 2 mps 721 mmHg 36%
    16:00 +34°C° 0.1 mm 2 mps 721 mmHg 36%
    17:00 +32°C° 0 mm 2 mps 721 mmHg 42%
    18:00 +30°C° 0 mm 2 mps 721 mmHg 48%
    19:00 +28°C° 0 mm 2 mps 721 mmHg 54%
    20:00 +27°C° 0.5 mm 2 mps 721 mmHg 59%
    21:00 +25°C° 0.5 mm 2 mps 721 mmHg 64%
    22:00 +24°C° 0.5 mm 2 mps 721 mmHg 69%
    23:00 +23°C° 0.3 mm 2 mps 721 mmHg 70%

    Day after tomorrow, 23 July, Sunday

    Time Temperature Precipitation Wind Pressure Humidity
    00:00 +23°C° 0.3 mm 2 mps 721 mmHg 72%
    01:00 +23°C° 0.3 mm 2 mps 721 mmHg 73%
    02:00 +21°C° 0.4 mm 2 mps 721 mmHg 77%
    03:00 +20°C° 0.4 mm 2 mps 721 mmHg 80%
    04:00 +20°C° 0.4 mm 2 mps 721 mmHg 83%
    05:00 +21°C° 0.2 mm 2 mps 721 mmHg 81%
    06:00 +23°C° 0.2 mm 2 mps 721 mmHg 78%
    07:00 +24°C° 0.2 mm 2 mps 721 mmHg 75%
    08:00 +26°C° 0.4 mm 2 mps 721 mmHg 68%
    09:00 +28°C° 0.4 mm 2 mps 721 mmHg 60%
    10:00 +30°C° 0.4 mm 2 mps 721 mmHg 53%
    11:00 +30°C° 0.7 mm 2 mps 721 mmHg 53%
    12:00 +30°C° 0.7 mm 3 mps 721 mmHg 53%
    13:00 +30°C° 0.7 mm 3 mps 721 mmHg 53%
    14:00 +29°C° 0.5 mm 3 mps 721 mmHg 55%
    15:00 +28°C° 0.5 mm 3 mps 721 mmHg 57%
    16:00 +28°C° 0.5 mm 3 mps 721 mmHg 59%
    17:00 +26°C° 0.6 mm 3 mps 721 mmHg 64%
    18:00 +25°C° 0.6 mm 3 mps 721 mmHg 69%
    19:00 +24°C° 0.6 mm 3 mps 721 mmHg 74%
    20:00 +22°C° 1.5 mm 3 mps 721 mmHg 79%
    21:00 +21°C° 1.5 mm 2 mps 721 mmHg 83%
    22:00 +19°C° 1.5 mm 2 mps 721 mmHg 88%
    23:00 +19°C° 0.8 mm 2 mps 721 mmHg 88%

    24 July, Monday

    Time Temperature Precipitation Wind Pressure Humidity
    00:00 +19°C° 0.8 mm 3 mps 721 mmHg 88%
    01:00 +19°C° 0.8 mm 3 mps 721 mmHg 88%
    02:00 +18°C° 0.1 mm 3 mps 720 mmHg 88%
    03:00 +18°C° 0.1 mm 3 mps 720 mmHg 87%
    04:00 +18°C° 0.1 mm 3 mps 720 mmHg 86%
    05:00 +18°C° 0.3 mm 3 mps 720 mmHg 84%
    06:00 +18°C° 0.3 mm 4 mps 720 mmHg 83%
    07:00 +18°C° 0.3 mm 4 mps 720 mmHg 81%
    08:00 +19°C° 0.5 mm 4 mps 719 mmHg 80%
    09:00 +19°C° 0.5 mm 4 mps 719 mmHg 79%
    10:00 +20°C° 0.5 mm 3 mps 718 mmHg 77%
    11:00 +20°C° 0.4 mm 3 mps 718 mmHg 75%
    12:00 +21°C° 0.4 mm 3 mps 717 mmHg 72%
    13:00 +23°C° 0.4 mm 2 mps 717 mmHg 70%
    14:00 +23°C° 0.2 mm 2 mps 716 mmHg 70%
    15:00 +23°C° 0.2 mm 2 mps 716 mmHg 71%
    16:00 +23°C° 0.2 mm 1 mps 715 mmHg 71%
    17:00 +21°C° 0.3 mm 2 mps 715 mmHg 74%
    18:00 +20°C° 0.3 mm 2 mps 715 mmHg 76%
    19:00 +20°C° 0.3 mm 2 mps 715 mmHg 79%
    20:00 +18°C° 0.5 mm 3 mps 715 mmHg 82%
    21:00 +17°C° 0.5 mm 4 mps 715 mmHg 84%
    22:00 +15°C° 0.5 mm 5 mps 715 mmHg 87%
    23:00 +14°C° 0.5 mm 5 mps 715 mmHg 86%

    25 July, Tuesday

    Time Temperature Precipitation Wind Pressure Humidity
    00:00 +14°C° 0.5 mm 5 mps 715 mmHg 85%
    01:00 +14°C° 0.5 mm 5 mps 716 mmHg 84%
    02:00 +14°C° 0.1 mm 5 mps 716 mmHg 82%
    03:00 +14°C° 0.1 mm 5 mps 716 mmHg 81%
    04:00 +14°C° 0.1 mm 5 mps 715 mmHg 80%
    05:00 +14°C° 0 mm 5 mps 716 mmHg 77%
    06:00 +15°C° 0 mm 5 mps 716 mmHg 75%
    07:00 +15°C° 0 mm 5 mps 716 mmHg 72%
    08:00 +17°C° 0 mm 5 mps 716 mmHg 64%
    09:00 +20°C° 0 mm 5 mps 716 mmHg 55%
    10:00 +21°C° 0 mm 5 mps 716 mmHg 47%
    11:00 +22°C° 0 mm 4 mps 716 mmHg 45%
    12:00 +23°C° 0 mm 4 mps 716 mmHg 42%
    13:00 +25°C° 0 mm 4 mps 716 mmHg 40%
    14:00 +23°C° 0 mm 4 mps 716 mmHg 42%
    15:00 +23°C° 0 mm 4 mps 716 mmHg 45%
    16:00 +22°C° 0 mm 4 mps 716 mmHg 48%
    17:00 +21°C° 0.2 mm 4 mps 716 mmHg 53%
    18:00 +20°C° 0.2 mm 3 mps 716 mmHg 59%
    19:00 +18°C° 0.2 mm 3 mps 716 mmHg 65%
    20:00 +17°C° 1.2 mm 3 mps 716 mmHg 72%
    21:00 +16°C° 1.2 mm 3 mps 717 mmHg 79%
    22:00 +15°C° 1.2 mm 2 mps 717 mmHg 86%
    23:00 +15°C° 0.2 mm 2 mps 717 mmHg 87%

    26 July, Wednesday

    Time Temperature Precipitation Wind Pressure Humidity
    00:00 +14°C° 0.2 mm 2 mps 717 mmHg 88%
    01:00 +13°C° 0.2 mm 2 mps 717 mmHg 88%
    02:00 +13°C° 0 mm 2 mps 717 mmHg 88%
    03:00 +13°C° 0 mm 2 mps 717 mmHg 88%
    04:00 +13°C° 0 mm 1 mps 717 mmHg 87%
    05:00 +14°C° 0 mm 2 mps 718 mmHg 85%
    06:00 +15°C° 0 mm 2 mps 718 mmHg 83%
    07:00 +16°C° 0 mm 2 mps 719 mmHg 80%
    08:00 +17°C° 0.1 mm 2 mps 719 mmHg 72%
    09:00 +19°C° 0.1 mm 2 mps 719 mmHg 64%
    10:00 +21°C° 0.1 mm 3 mps 719 mmHg 56%
    11:00 +21°C° 0.4 mm 3 mps 719 mmHg 54%
    12:00 +22°C° 0.4 mm 3 mps 719 mmHg 53%
    13:00 +24°C° 0.4 mm 3 mps 719 mmHg 52%
    14:00 +24°C° 0 mm 3 mps 719 mmHg 50%
    15:00 +24°C° 0 mm 3 mps 719 mmHg 48%
    16:00 +24°C° 0 mm 3 mps 719 mmHg 47%
    17:00 +22°C° 0 mm 3 mps 719 mmHg 52%
    18:00 +21°C° 0 mm 2 mps 719 mmHg 57%
    19:00 +20°C° 0 mm 2 mps 719 mmHg 62%
    20:00 +18°C° 0 mm 2 mps 720 mmHg 65%
    21:00 +17°C° 0 mm 2 mps 720 mmHg 68%
    22:00 +16°C° 0 mm 2 mps 721 mmHg 71%
    23:00 +16°C° 0 mm 2 mps 721 mmHg 72%
    Show more